Time,TemperatureF,DewpointF,PressureIn,WindDirection,WindDirectionDegrees,WindSpeedMPH,WindSpeedGustMPH,Humidity,HourlyPrecipIn,Conditions,Clouds,dailyrainin,SoftwareType,DateUTC
2013-04-17 00:02:00,27.0,15.0,-100.00,NNE,24,3.0,4.0,61,0.00,,,-99.99,,2013-04-17 06:02:00,
2013-04-17 00:12:00,27.0,15.0,-100.00,NNE,24,3.0,4.0,61,0.00,,,-99.99,,2013-04-17 06:12:00,
2013-04-17 00:22:00,27.0,15.0,-100.00,NNE,14,3.0,4.0,60,0.00,,,-99.99,,2013-04-17 06:22:00,
2013-04-17 00:32:00,27.0,15.0,-100.00,NNE,14,3.0,4.0,60,0.00,,,-99.99,,2013-04-17 06:32:00,
2013-04-17 00:42:00,26.0,16.0,-100.00,West,274,3.0,6.0,66,0.00,,,-99.99,,2013-04-17 06:42:00,
2013-04-17 00:52:00,26.0,14.0,-100.00,NNW,329,1.0,2.0,60,0.00,,,-99.99,,2013-04-17 06:52:00,
2013-04-17 01:02:00,26.0,14.0,-100.00,NNW,329,1.0,2.0,60,0.00,,,-99.99,,2013-04-17 07:02:00,
2013-04-17 01:12:00,26.0,16.0,-100.00,WNW,285,2.0,3.0,65,0.00,,,-99.99,,2013-04-17 07:12:00,
2013-04-17 01:22:00,26.0,16.0,-100.00,WNW,285,2.0,3.0,65,0.00,,,-99.99,,2013-04-17 07:22:00,
2013-04-17 01:32:00,26.0,16.0,-100.00,WNW,285,2.0,3.0,65,0.00,,,-99.99,,2013-04-17 07:32:00,
2013-04-17 01:42:00,26.0,15.0,-100.00,SW,227,4.0,5.0,61,0.00,,,-99.99,,2013-04-17 07:42:00,
2013-04-17 01:52:00,26.0,15.0,-100.00,SW,232,2.0,3.0,63,0.00,,,-99.99,,2013-04-17 07:52:00,
2013-04-17 02:02:00,26.0,15.0,-100.00,SW,232,2.0,3.0,63,0.00,,,-99.99,,2013-04-17 08:02:00,
2013-04-17 02:12:00,27.0,13.0,-100.00,East,79,3.0,6.0,56,0.00,,,-99.99,,2013-04-17 08:12:00,
2013-04-17 02:22:00,27.0,13.0,-100.00,East,79,3.0,6.0,56,0.00,,,-99.99,,2013-04-17 08:22:00,
2013-04-17 02:32:00,27.0,13.0,-100.00,East,79,3.0,6.0,56,0.00,,,-99.99,,2013-04-17 08:32:00,
2013-04-17 02:42:00,26.0,13.0,-100.00,West,267,1.0,3.0,58,0.00,,,-99.99,,2013-04-17 08:42:00,
2013-04-17 02:52:00,26.0,13.0,-100.00,West,267,1.0,3.0,58,0.00,,,-99.99,,2013-04-17 08:52:00,
2013-04-17 03:02:00,26.0,13.0,-100.00,West,267,1.0,3.0,58,0.00,,,-99.99,,2013-04-17 09:02:00,
2013-04-17 03:12:00,26.0,13.0,-100.00,NW,308,2.0,5.0,57,0.00,,,-99.99,,2013-04-17 09:12:00,
2013-04-17 03:22:00,26.0,13.0,-100.00,NW,308,2.0,5.0,57,0.00,,,-99.99,,2013-04-17 09:22:00,
2013-04-17 03:33:00,26.0,13.0,-100.00,NW,308,2.0,5.0,57,0.00,,,-99.99,,2013-04-17 09:33:00,
2013-04-17 03:42:00,25.0,14.0,-100.00,WSW,253,3.0,6.0,62,0.00,,,-99.99,,2013-04-17 09:42:00,
2013-04-17 03:52:00,25.0,14.0,-100.00,WNW,291,3.0,6.0,64,0.00,,,-99.99,,2013-04-17 09:52:00,
2013-04-17 04:02:00,25.0,14.0,-100.00,WNW,291,3.0,6.0,64,0.00,,,-99.99,,2013-04-17 10:02:00,
2013-04-17 04:12:00,24.0,14.0,-100.00,West,280,1.0,2.0,67,0.00,,,-99.99,,2013-04-17 10:12:00,
2013-04-17 04:23:00,24.0,14.0,-100.00,West,272,2.0,5.0,65,0.00,,,-99.99,,2013-04-17 10:23:00,
2013-04-17 04:32:00,24.0,14.0,-100.00,West,272,2.0,5.0,65,0.00,,,-99.99,,2013-04-17 10:32:00,
2013-04-17 04:42:00,24.0,14.0,-100.00,WSW,240,0.0,2.0,64,0.00,,,-99.99,,2013-04-17 10:42:00,
2013-04-17 04:52:00,24.0,13.0,-100.00,SW,230,2.0,4.0,60,0.00,,,-99.99,,2013-04-17 10:52:00,
2013-04-17 05:02:00,24.0,13.0,-100.00,SW,230,2.0,4.0,60,0.00,,,-99.99,,2013-04-17 11:02:00,
2013-04-17 05:11:00,24.0,13.0,-100.00,WSW,251,2.0,5.0,61,0.00,,,-99.99,,2013-04-17 11:11:00,
2013-04-17 05:22:00,24.0,13.0,-100.00,West,267,3.0,4.0,62,0.00,,,-99.99,,2013-04-17 11:22:00,
2013-04-17 05:32:00,24.0,13.0,-100.00,West,267,3.0,4.0,62,0.00,,,-99.99,,2013-04-17 11:32:00,
2013-04-17 05:42:00,24.0,13.0,-100.00,SSW,203,1.0,3.0,63,0.00,,,-99.99,,2013-04-17 11:42:00,
2013-04-17 05:52:00,23.0,13.0,-100.00,NNE,32,0.0,2.0,65,0.00,,,-99.99,,2013-04-17 11:52:00,
2013-04-17 06:02:00,23.0,13.0,-100.00,NNE,32,0.0,2.0,65,0.00,,,-99.99,,2013-04-17 12:02:00,
2013-04-17 06:12:00,23.0,13.0,-100.00,WNW,298,0.0,1.0,67,0.00,,,-99.99,,2013-04-17 12:12:00,
2013-04-17 06:22:00,23.0,13.0,-100.00,SSE,164,1.0,3.0,67,0.00,,,-99.99,,2013-04-17 12:22:00,
2013-04-17 06:32:00,23.0,13.0,-100.00,SSE,164,1.0,3.0,67,0.00,,,-99.99,,2013-04-17 12:32:00,
2013-04-17 06:42:00,23.0,13.0,-100.00,West,267,2.0,6.0,64,0.00,,,-99.99,,2013-04-17 12:42:00,
2013-04-17 06:52:00,23.0,13.0,-100.00,WNW,282,1.0,2.0,64,0.00,,,-99.99,,2013-04-17 12:52:00,
2013-04-17 07:01:00,23.0,13.0,-100.00,WNW,282,1.0,2.0,64,0.00,,,-99.99,,2013-04-17 13:01:00,
2013-04-17 07:12:00,22.0,13.0,-100.00,WSW,256,2.0,5.0,66,0.00,,,-99.99,,2013-04-17 13:12:00,
2013-04-17 07:22:00,22.0,13.0,-100.00,West,270,3.0,5.0,69,0.00,,,-99.99,,2013-04-17 13:22:00,
2013-04-17 07:32:00,22.0,13.0,-100.00,West,270,3.0,5.0,69,0.00,,,-99.99,,2013-04-17 13:32:00,
2013-04-17 07:42:00,22.0,13.0,-100.00,West,270,3.0,5.0,69,0.00,,,-99.99,,2013-04-17 13:42:00,
2013-04-17 07:52:00,22.0,12.0,-100.00,SSW,202,1.0,5.0,64,0.00,,,-99.99,,2013-04-17 13:52:00,
2013-04-17 08:02:00,22.0,12.0,-100.00,SSW,202,1.0,5.0,64,0.00,,,-99.99,,2013-04-17 14:02:00,
2013-04-17 08:12:00,22.0,12.0,-100.00,SSW,202,1.0,5.0,64,0.00,,,-99.99,,2013-04-17 14:12:00,
2013-04-17 08:22:00,25.0,13.0,-100.00,WSW,243,3.0,6.0,60,0.00,,,-99.99,,2013-04-17 14:22:00,
2013-04-17 08:32:00,25.0,13.0,-100.00,WSW,243,3.0,6.0,60,0.00,,,-99.99,,2013-04-17 14:32:00,
2013-04-17 08:43:00,24.0,13.0,-100.00,West,267,5.0,7.0,60,0.00,,,-99.99,,2013-04-17 14:43:00,
2013-04-17 08:52:00,24.0,14.0,-100.00,West,261,3.0,5.0,66,0.00,,,-99.99,,2013-04-17 14:52:00,
2013-04-17 09:02:00,24.0,14.0,-100.00,West,261,3.0,5.0,66,0.00,,,-99.99,,2013-04-17 15:02:00,
2013-04-17 09:12:00,25.0,13.0,-100.00,WSW,251,3.0,5.0,61,0.00,,,-99.99,,2013-04-17 15:12:00,
2013-04-17 09:22:00,25.0,15.0,-100.00,WSW,256,2.0,4.0,64,0.00,,,-99.99,,2013-04-17 15:22:00,
2013-04-17 09:33:00,25.0,15.0,-100.00,WSW,256,2.0,4.0,64,0.00,,,-99.99,,2013-04-17 15:33:00,
2013-04-17 09:42:00,26.0,15.0,-100.00,West,268,4.0,6.0,65,0.00,,,-99.99,,2013-04-17 15:42:00,
2013-04-17 09:53:00,27.0,15.0,-100.00,West,260,2.0,4.0,62,0.00,,,-99.99,,2013-04-17 15:53:00,
2013-04-17 10:03:00,27.0,15.0,-100.00,West,260,2.0,4.0,62,0.00,,,-99.99,,2013-04-17 16:03:00,
2013-04-17 10:12:00,27.0,16.0,-100.00,West,268,1.0,3.0,63,0.00,,,-99.99,,2013-04-17 16:12:00,
2013-04-17 10:22:00,29.0,14.0,-100.00,West,277,4.0,6.0,53,0.00,,,-99.99,,2013-04-17 16:22:00,
2013-04-17 10:32:00,29.0,14.0,-100.00,West,277,4.0,6.0,53,0.00,,,-99.99,,2013-04-17 16:32:00,
2013-04-17 10:42:00,29.0,13.0,-100.00,WNW,285,3.0,6.0,50,0.00,,,-99.99,,2013-04-17 16:42:00,
2013-04-17 10:52:00,30.0,14.0,-100.00,West,260,3.0,6.0,49,0.00,,,-99.99,,2013-04-17 16:52:00,
2013-04-17 11:02:00,30.0,14.0,-100.00,West,260,3.0,6.0,49,0.00,,,-99.99,,2013-04-17 17:02:00,
2013-04-17 11:12:00,32.0,11.0,-100.00,North,0,3.0,6.0,41,0.00,,,-99.99,,2013-04-17 17:12:00,
2013-04-17 11:22:00,33.0,13.0,-100.00,North,7,6.0,14.0,44,0.00,,,-99.99,,2013-04-17 17:22:00,
2013-04-17 11:32:00,33.0,13.0,-100.00,North,7,6.0,14.0,44,0.00,,,-99.99,,2013-04-17 17:32:00,
2013-04-17 11:42:00,33.0,7.0,-100.00,ESE,106,6.0,9.0,33,0.00,,,-99.99,,2013-04-17 17:42:00,
2013-04-17 11:52:00,34.0,8.0,-100.00,SSW,206,6.0,12.0,33,0.00,,,-99.99,,2013-04-17 17:52:00,
2013-04-17 12:02:00,34.0,8.0,-100.00,SSW,206,6.0,12.0,33,0.00,,,-99.99,,2013-04-17 18:02:00,
2013-04-17 12:12:00,34.0,8.0,-100.00,West,274,4.0,8.0,32,0.00,,,-99.99,,2013-04-17 18:12:00,
2013-04-17 12:22:00,35.0,8.0,-100.00,ENE,69,4.0,11.0,32,0.00,,,-99.99,,2013-04-17 18:22:00,
2013-04-17 12:32:00,35.0,8.0,-100.00,ENE,69,4.0,11.0,32,0.00,,,-99.99,,2013-04-17 18:32:00,
2013-04-17 12:42:00,35.0,8.0,-100.00,ENE,69,4.0,11.0,32,0.00,,,-99.99,,2013-04-17 18:42:00,
2013-04-17 12:52:00,35.0,8.0,-100.00,NNE,28,4.0,10.0,32,0.00,,,-99.99,,2013-04-17 18:52:00,
2013-04-17 13:02:00,35.0,8.0,-100.00,NNE,28,4.0,10.0,32,0.00,,,-99.99,,2013-04-17 19:02:00,
2013-04-17 13:12:00,36.0,9.0,-100.00,NW,309,5.0,8.0,33,0.00,,,-99.99,,2013-04-17 19:12:00,
2013-04-17 13:22:00,35.0,8.0,-100.00,ESE,104,4.0,10.0,31,0.00,,,-99.99,,2013-04-17 19:22:00,
2013-04-17 13:32:00,35.0,8.0,-100.00,ESE,104,4.0,10.0,31,0.00,,,-99.99,,2013-04-17 19:32:00,
2013-04-17 13:42:00,38.0,9.0,-100.00,ENE,62,3.0,6.0,30,0.00,,,-99.99,,2013-04-17 19:42:00,
2013-04-17 13:52:00,38.0,9.0,-100.00,ENE,62,3.0,6.0,30,0.00,,,-99.99,,2013-04-17 19:52:00,
2013-04-17 14:02:00,38.0,9.0,-100.00,ENE,62,3.0,6.0,30,0.00,,,-99.99,,2013-04-17 20:02:00,
2013-04-17 14:12:00,37.0,8.0,-100.00,WSW,250,2.0,5.0,30,0.00,,,-99.99,,2013-04-17 20:12:00,
2013-04-17 14:22:00,38.0,9.0,-100.00,East,93,5.0,10.0,29,0.00,,,-99.99,,2013-04-17 20:22:00,
2013-04-17 14:32:00,38.0,9.0,-100.00,East,93,5.0,10.0,29,0.00,,,-99.99,,2013-04-17 20:32:00,
2013-04-17 14:42:00,39.0,9.0,-100.00,ENE,68,6.0,12.0,29,0.00,,,-99.99,,2013-04-17 20:42:00,
2013-04-17 14:52:00,40.0,12.0,-100.00,SE,128,4.0,7.0,32,0.00,,,-99.99,,2013-04-17 20:52:00,
2013-04-17 15:02:00,40.0,12.0,-100.00,SE,128,4.0,7.0,32,0.00,,,-99.99,,2013-04-17 21:02:00,
2013-04-17 15:12:00,39.0,13.0,-100.00,ENE,75,4.0,8.0,34,0.00,,,-99.99,,2013-04-17 21:12:00,
2013-04-17 15:22:00,39.0,8.0,-100.00,East,92,6.0,11.0,27,0.00,,,-99.99,,2013-04-17 21:22:00,
2013-04-17 15:32:00,39.0,8.0,-100.00,East,92,6.0,11.0,27,0.00,,,-99.99,,2013-04-17 21:32:00,
2013-04-17 15:42:00,39.0,8.0,-100.00,NE,47,7.0,12.0,27,0.00,,,-99.99,,2013-04-17 21:42:00,
2013-04-17 15:53:00,38.0,8.0,-100.00,SW,230,2.0,4.0,28,0.00,,,-99.99,,2013-04-17 21:53:00,
2013-04-17 16:02:00,38.0,8.0,-100.00,SW,230,2.0,4.0,28,0.00,,,-99.99,,2013-04-17 22:02:00,
2013-04-17 16:12:00,40.0,6.0,-100.00,East,88,4.0,7.0,25,0.00,,,-99.99,,2013-04-17 22:12:00,
2013-04-17 16:22:00,39.0,10.0,-100.00,ESE,123,8.0,11.0,29,0.00,,,-99.99,,2013-04-17 22:22:00,
2013-04-17 16:33:00,39.0,10.0,-100.00,ESE,123,8.0,11.0,29,0.00,,,-99.99,,2013-04-17 22:33:00,
2013-04-17 16:42:00,40.0,8.0,-100.00,South,191,2.0,4.0,27,0.00,,,-99.99,,2013-04-17 22:42:00,
2013-04-17 16:53:00,40.0,9.0,-100.00,ENE,69,5.0,11.0,28,0.00,,,-99.99,,2013-04-17 22:53:00,
2013-04-17 17:02:00,40.0,9.0,-100.00,ENE,69,5.0,11.0,28,0.00,,,-99.99,,2013-04-17 23:02:00,
2013-04-17 17:12:00,41.0,10.0,-100.00,West,274,4.0,8.0,28,0.00,,,-99.99,,2013-04-17 23:12:00,
2013-04-17 17:22:00,42.0,12.0,-100.00,NE,56,3.0,8.0,29,0.00,,,-99.99,,2013-04-17 23:22:00,
2013-04-17 17:32:00,42.0,12.0,-100.00,NE,56,3.0,8.0,29,0.00,,,-99.99,,2013-04-17 23:32:00,
2013-04-17 17:42:00,42.0,11.0,-100.00,West,261,4.0,6.0,28,0.00,,,-99.99,,2013-04-17 23:42:00,
2013-04-17 17:52:00,40.0,10.0,-100.00,SW,232,5.0,9.0,28,0.00,,,-99.99,,2013-04-17 23:52:00,
2013-04-17 18:02:00,40.0,10.0,-100.00,SW,232,5.0,9.0,28,0.00,,,-99.99,,2013-04-18 00:02:00,
2013-04-17 18:12:00,40.0,11.0,-100.00,South,185,2.0,7.0,29,0.00,,,-99.99,,2013-04-18 00:12:00,
2013-04-17 18:22:00,40.0,11.0,-100.00,South,185,2.0,7.0,29,0.00,,,-99.99,,2013-04-18 00:22:00,
2013-04-17 18:32:00,40.0,11.0,-100.00,South,185,2.0,7.0,29,0.00,,,-99.99,,2013-04-18 00:32:00,
2013-04-17 18:42:00,41.0,11.0,-100.00,NW,316,4.0,8.0,30,0.00,,,-99.99,,2013-04-18 00:42:00,
2013-04-17 18:52:00,40.0,10.0,-100.00,West,270,4.0,7.0,29,0.00,,,-99.99,,2013-04-18 00:52:00,
2013-04-17 19:02:00,40.0,10.0,-100.00,West,270,4.0,7.0,29,0.00,,,-99.99,,2013-04-18 01:02:00,
2013-04-17 19:12:00,40.0,10.0,-100.00,WNW,282,4.0,11.0,29,0.00,,,-99.99,,2013-04-18 01:12:00,
2013-04-17 19:22:00,40.0,10.0,-100.00,WNW,282,4.0,11.0,29,0.00,,,-99.99,,2013-04-18 01:22:00,
2013-04-17 19:32:00,40.0,10.0,-100.00,WNW,282,4.0,11.0,29,0.00,,,-99.99,,2013-04-18 01:32:00,
2013-04-17 19:42:00,39.0,8.0,-100.00,NNE,28,4.0,6.0,27,0.00,,,-99.99,,2013-04-18 01:42:00,
2013-04-17 19:52:00,37.0,8.0,-100.00,NW,311,4.0,7.0,30,0.00,,,-99.99,,2013-04-18 01:52:00,
2013-04-17 20:02:00,37.0,8.0,-100.00,NW,311,4.0,7.0,30,0.00,,,-99.99,,2013-04-18 02:02:00,
2013-04-17 20:12:00,37.0,7.0,-100.00,WNW,287,4.0,8.0,28,0.00,,,-99.99,,2013-04-18 02:12:00,
2013-04-17 20:22:00,36.0,8.0,-100.00,NW,323,3.0,7.0,30,0.00,,,-99.99,,2013-04-18 02:22:00,
2013-04-17 20:32:00,36.0,8.0,-100.00,NW,323,3.0,7.0,30,0.00,,,-99.99,,2013-04-18 02:32:00,
2013-04-17 20:42:00,36.0,8.0,-100.00,NW,323,3.0,7.0,30,0.00,,,-99.99,,2013-04-18 02:42:00,
2013-04-17 20:52:00,36.0,8.0,-100.00,NW,323,3.0,7.0,30,0.00,,,-99.99,,2013-04-18 02:52:00,
2013-04-17 21:02:00,35.0,4.0,-100.00,WNW,289,1.0,4.0,27,0.00,,,-99.99,,2013-04-18 03:02:00,
2013-04-17 21:12:00,34.0,5.0,-100.00,WSW,243,3.0,4.0,28,0.00,,,-99.99,,2013-04-18 03:12:00,
2013-04-17 21:22:00,34.0,8.0,-100.00,ESE,102,1.0,2.0,33,0.00,,,-99.99,,2013-04-18 03:22:00,
2013-04-17 21:33:00,34.0,8.0,-100.00,ESE,102,1.0,2.0,33,0.00,,,-99.99,,2013-04-18 03:33:00,
2013-04-17 21:43:00,34.0,8.0,-100.00,ESE,102,1.0,2.0,33,0.00,,,-99.99,,2013-04-18 03:43:00,
2013-04-17 21:53:00,33.0,8.0,-100.00,South,185,0.0,2.0,34,0.00,,,-99.99,,2013-04-18 03:53:00,
2013-04-17 22:03:00,33.0,8.0,-100.00,South,185,0.0,2.0,34,0.00,,,-99.99,,2013-04-18 04:03:00,
2013-04-17 22:13:00,31.0,12.0,-100.00,SE,138,1.0,2.0,45,0.00,,,-99.99,,2013-04-18 04:13:00,
2013-04-17 22:23:00,32.0,13.0,-100.00,NE,52,1.0,2.0,46,0.00,,,-99.99,,2013-04-18 04:23:00,
2013-04-17 22:33:00,32.0,13.0,-100.00,NE,52,1.0,2.0,46,0.00,,,-99.99,,2013-04-18 04:33:00,
2013-04-17 22:43:00,32.0,12.0,-100.00,ESE,117,2.0,3.0,43,0.00,,,-99.99,,2013-04-18 04:43:00,
2013-04-17 22:53:00,32.0,12.0,-100.00,ESE,117,2.0,3.0,43,0.00,,,-99.99,,2013-04-18 04:53:00,
2013-04-17 23:02:00,32.0,12.0,-100.00,ESE,117,2.0,3.0,43,0.00,,,-99.99,,2013-04-18 05:02:00,
2013-04-17 23:12:00,31.0,14.0,-100.00,SSW,195,0.0,1.0,48,0.00,,,-99.99,,2013-04-18 05:12:00,
2013-04-17 23:22:00,30.0,14.0,-100.00,WSW,237,1.0,2.0,50,0.00,,,-99.99,,2013-04-18 05:22:00,
2013-04-17 23:32:00,30.0,14.0,-100.00,WSW,237,1.0,2.0,50,0.00,,,-99.99,,2013-04-18 05:32:00,
2013-04-17 23:42:00,30.0,13.0,-100.00,West,271,0.0,0.0,50,0.00,,,-99.99,,2013-04-18 05:42:00,
2013-04-17 23:52:00,29.0,14.0,-100.00,West,260,1.0,2.0,51,0.00,,,-99.99,,2013-04-18 05:52:00,